Skip Page Navigation
NASA JPL Caltech
NASA Logo - Jet Propulsion Laboratory + View the NASA Portal
+ Center for Near-Earth Object Studies
JPL Home Earth Solar System Stars & Galaxies Technology
JPL Solar System Dynamics
BODIES ORBITS EPHEMERIDES TOOLS PHYSICAL DATA DISCOVERY FAQ SITE MAP
JPL Small-Body Database Browser
Search: [ help ]  
160783 (2000 SB292)
Classification: Main-belt Asteroid          SPK-ID: 2160783
Ephemeris | Orbit Diagram | Orbital Elements | Mission Design | Physical Parameters | Discovery Circumstances | Close-Approach Data ]

[ show orbit diagram ]
Orbital Elements at Epoch 2459000.5 (2020-May-31.0) TDB
Reference: JPL 11 (heliocentric ecliptic J2000)
 Element Value Uncertainty (1-sigma)   Units 
e .09488075123358454 4.6409e-08  
a 2.373524123671313 1.7245e-08 au
q 2.148322371746343 1.0863e-07 au
i 4.820517519983501 5.0539e-06 deg
node 247.5978802083292 6.8888e-05 deg
peri 28.47250609775263 7.6245e-05 deg
M 216.7824680846202 3.3694e-05 deg
tp 2459531.852326494092
(2021-Nov-13.35232649)
0.0001253 TDB
period 1335.638416467719
3.66
1.4556e-05
3.985e-08
d
yr
n .2695340262464671 2.9374e-09 deg/d
Q 2.598725875596283 1.8881e-08 au
  Orbit Determination Parameters
   # obs. used (total)      351  
   data-arc span      7089 days (19.41 yr)  
   first obs. used      2000-09-03  
   last obs. used      2020-01-31  
   planetary ephem.      DE431  
   SB-pert. ephem.      SB431-N16  
   condition code      0  
   norm. resid. RMS      .63618  
   source      ORB  
   producer      Otto Matic  
   solution date      2020-Feb-24 13:25:00  

Additional Information
 Earth MOID = 1.13343 au 
 Jupiter MOID = 2.48121 au 
 T_jup = 3.532 
[ show covariance matrix ]

Ephemeris | Orbit Diagram | Orbital Elements | Mission Design | Physical Parameters | Discovery Circumstances | Close-Approach Data ]

Physical Parameter Table
Parameter Symbol Value Units Sigma Reference Notes
absolute magnitude H 16.4   n/a MPO449863  

160783 (2000 SB292)          Discovered 2000-Sep-27 by LINEAR at Socorro
Reference: 20070828/Numbers.arcLast Updated: 2007-08-30

[ show close-approach data ]
Alternate Designations
 2000 SB292 = 2000 TG69 = 2004 UN8 
Ephemeris | Orbit Diagram | Orbital Elements | Mission Design | Physical Parameters | Discovery Circumstances | Close-Approach Data ]
ABOUT SSD CREDITS/AWARDS PRIVACY/COPYRIGHT GLOSSARY LINKS
FirstGov 2020-Aug-05 08:48 UT
(server date/time)  
NASA Home Page
Site Manager:   Ryan S. Park
Webmaster  Alan B. Chamberlin